Revelstoke, Canada 16 day weather forecast

Slopes altitude range 510 m - 2225m

Number of lifts: 4 Pistes: -1km

In some cases the lift and piste totals shown are for the ski domain (e.g. Three Valleys) rather than individual resort (e.g. Courchevel)

Overview

The 16 day weather forecast is fully updated 4 times every day.

    • Sun 17 FEB 2019
    • Sun 17
    • -15C -9C
    • Mon 18 FEB 2019
    • Mon 18
    • -21C -18C
    • Tue 19 FEB 2019
    • Tue 19
    • -19C -18C
    • Wed 20 FEB 2019
    • Wed 20
    • -15C -14C
    • Thu 21 FEB 2019
    • Thu 21
    • -14C -13C
    • Fri 22 FEB 2019
    • Fri 22
    • -17C -16C
    • Sat 23 FEB 2019
    • Sat 23
    • -12C -9C
    • Sun 24 FEB 2019
    • Sun 24
    • -12C -10C
    • Mon 25 FEB 2019
    • Mon 25
    • -17C -14C
    • Tue 26 FEB 2019
    • Tue 26
    • -24C -21C
    • Wed 27 FEB 2019
    • Wed 27
    • -24C -15C
    • Thu 28 FEB 2019
    • Thu 28
    • -21C -12C
    • Fri 01 MAR 2019
    • Fri 01
    • -16C -9C
    • Sat 02 MAR 2019
    • Sat 02
    • -15C -7C
    • Sun 03 MAR 2019
    • Sun 03
    • -13C -8C
    • Mon 04 MAR 2019
    • Mon 04
    • -15C -8C

Date:

Time Type 0°C level Temp Chill Snow Cloud Speed Gust Dir Press
12:00 0m -9°C -9_6 1cm 100% 6mph 7mph 1026mB
15:00 0m -15°C -15_6 0cm 99% 6mph 7mph 1030mB
18:00 0m -13°C -13_5 0cm 53% 5mph 7mph 1029mB
21:00 201m -13°C -13_2 0cm 42% 2mph 3mph 1027mB
0:00 60m -13°C -13_2 0cm 65% 2mph 3mph 1027mB
3:00 0m -16°C -16_3 0cm 66% 3mph 4mph 1032mB
6:00 0m -19°C -19_4 0cm 48% 4mph 5mph 1035mB
9:00 0m -20°C -20_3 0cm 0% 3mph 4mph 1036mB
12:00 0m -18°C -18_3 0cm 0% 3mph 4mph 1037mB
15:00 0m -21°C -21_2 0cm 0% 2mph 3mph 1037mB
18:00 0m -13°C -13_1 0cm 0% 1mph 1mph 1032mB
21:00 40m -13°C -13_3 0cm 4% 3mph 3mph 1028mB
0:00 0m -13°C -13_3 0cm 45% 3mph 4mph 1026mB
3:00 0m -16°C -16_1 0cm 95% 1mph 2mph 1030mB
6:00 0m -18°C -18_2 0cm 70% 2mph 2mph 1031mB
9:00 0m -19°C -19_2 0cm 22% 2mph 2mph 1031mB
12:00 0m -18°C -18_2 0cm 35% 2mph 2mph 1030mB
15:00 0m -18°C -18_2 0cm 71% 2mph 3mph 1028mB
18:00 0m -11°C -11_2 0cm 85% 2mph 3mph 1023mB
21:00 248m -11°C -11_4 1cm 100% 4mph 5mph 1018mB
0:00 285m -11°C -11_3 1cm 100% 3mph 4mph 1015mB
3:00 0m -13°C -13_1 1cm 97% 1mph 2mph 1016mB
6:00 0m -14°C -14_3 0cm 93% 3mph 4mph 1016mB
9:00 0m -15°C -15_4 0cm 87% 4mph 5mph 1016mB
12:00 0m -14°C -14_4 0cm 88% 4mph 5mph 1016mB
15:00 0m -14°C -14_3 0cm 89% 3mph 4mph 1016mB
18:00 261m -8°C -8_2 0cm 88% 2mph 3mph 1014mB
21:00 724m -8°C -8_2 0cm 63% 2mph 3mph 1012mB
0:00 656m -8°C -8_2 0cm 77% 2mph 3mph 1013mB
3:00 0m -12°C -12_3 0cm 72% 3mph 3mph 1017mB
6:00 0m -13°C -13_3 0cm 65% 3mph 4mph 1020mB
9:00 0m -14°C -14_3 0cm 74% 3mph 4mph 1023mB
12:00 0m -13°C -13_4 0cm 78% 4mph 5mph 1025mB
15:00 0m -14°C -14_4 0cm 63% 4mph 5mph 1026mB
18:00 153m -9°C -9_2 0cm 41% 2mph 2mph 1023mB
21:00 572m -9°C -9_3 0cm 13% 3mph 3mph 1020mB
0:00 452m -9°C -9_3 0cm 43% 3mph 4mph 1019mB
3:00 0m -15°C -15_1 0cm 21% 1mph 2mph 1023mB
6:00 0m -17°C -17_1 0cm 15% 1mph 1mph 1024mB
9:00 0m -17°C -17_2 0cm 30% 2mph 3mph 1024mB
12:00 0m -16°C -16_3 0cm 31% 3mph 4mph 1024mB
15:00 0m -16°C -16_3 0cm 77% 3mph 4mph 1024mB
18:00 0m -10°C -10_4 0cm 87% 4mph 6mph 1020mB
21:00 372m -10°C -10_5 1cm 100% 5mph 7mph 1016mB
0:00 467m -10°C -10_4 1cm 100% 4mph 7mph 1015mB
3:00 285m -8°C -8_3 1cm 100% 3mph 4mph 1017mB
6:00 163m -9°C -9_4 1cm 100% 4mph 5mph 1018mB
9:00 0m -11°C -11_4 1cm 98% 4mph 5mph 1018mB
12:00 0m -9°C -9_4 1cm 98% 4mph 5mph 1016mB
15:00 0m -12°C -12_4 1cm 99% 4mph 4mph 1015mB
18:00 293m -8°C -8_3 1cm 100% 3mph 4mph 1012mB
21:00 759m -8°C -8_3 1cm 100% 3mph 4mph 1008mB
0:00 767m -8°C -8_0 1cm 100% 0mph 1mph 1008mB
3:00 220m -8°C -8_3 1cm 100% 3mph 4mph 1010mB
6:00 0m -10°C -10_4 1cm 100% 4mph 5mph 1013mB
9:00 0m -10°C -10_4 1cm 99% 4mph 5mph 1016mB
12:00 0m -10°C -10_5 1cm 99% 5mph 6mph 1020mB
15:00 0m -12°C -12_5 0cm 99% 5mph 6mph 1023mB
18:00 0m -10°C -10_5 0cm 96% 5mph 7mph 1023mB
21:00 326m -10°C -10_4 0cm 80% 4mph 5mph 1021mB
0:00 207m -10°C -10_4 0cm 85% 4mph 5mph 1022mB
3:00 0m -13°C -13_4 0cm 97% 4mph 5mph 1026mB
6:00 0m -14°C -14_5 1cm 97% 5mph 6mph 1028mB
9:00 0m -15°C -15_5 1cm 99% 5mph 5mph 1030mB
12:00 0m -14°C -14_5 1cm 99% 5mph 6mph 1031mB
15:00 0m -17°C -17_6 1cm 96% 6mph 6mph 1033mB
18:00 0m -15°C -15_5 0cm 95% 5mph 7mph 1031mB
21:00 0m -15°C -15_4 0cm 82% 4mph 5mph 1029mB
0:00 0m -15°C -15_4 0cm 84% 4mph 5mph 1028mB
3:00 0m -19°C -19_5 0cm 51% 5mph 6mph 1034mB
6:00 0m -21°C -21_5 0cm 28% 5mph 6mph 1037mB
9:00 0m -22°C -22_5 0cm 0% 5mph 6mph 1040mB
12:00 0m -21°C -21_5 0cm 0% 5mph 6mph 1041mB
15:00 0m -24°C -24_4 0cm 0% 4mph 5mph 1042mB
18:00 0m -14°C -14_2 0cm 0% 2mph 3mph 1037mB
21:00 0m -14°C -14_3 0cm 0% 3mph 4mph 1034mB
0:00 0m -14°C -14_4 0cm 25% 4mph 5mph 1033mB
3:00 0m -19°C -19_3 0cm 19% 3mph 3mph 1038mB
6:00 0m -21°C -21_3 0cm 10% 3mph 4mph 1041mB
Afternoon 0mm 0 0m -15°C -15_1 0cm 18% 1mph 1mph 1039mB
Morning 0mm 0 0m -19°C -19_2 0cm 16% 2mph 2mph 1040mB
Afternoon 0mm 0 0m -12°C -12_2 0cm 29% 2mph 3mph 1036mB
Morning 0mm 0 0m -15°C -15_2 0cm 36% 2mph 3mph 1037mB
Afternoon 0mm 0 73m -9°C -9_4 0cm 66% 4mph 7mph 1029mB
Morning 0mm 0.0625 420m -9°C -9_3 1cm 84% 3mph 4mph 1020mB
Afternoon 0mm 0 310m -7°C -7_4 0cm 57% 4mph 6mph 1022mB
Morning 0mm 0.125 0m -11°C -11_4 1cm 74% 4mph 5mph 1018mB
Afternoon 0mm 0 324m -8°C -8_5 0cm 93% 5mph 9mph 1004mB
Morning 0mm 0.4375 0m -12°C -12_5 4cm 74% 5mph 5mph 1005mB
Afternoon 0mm 0 284m -8°C -8_8 0cm 49% 8mph 12mph 1013mB
Morning 0.015625mm 0.1875 0m -15°C -15_6 0cm 18% 6mph 6mph 1026mB

16 day outlook at a glance

Forecast issued: 2/17/2019 1:33:31 PM

Chat

Your comments and questions. In a resort? Let us know what it's like!


Characters left 250

For terms and conditions see Readers Comments on the Cookie and privacy policy page.